CST,Max TemperatureF,Mean TemperatureF,Min TemperatureF,Max Dew PointF,MeanDew PointF,Min DewpointF,Max Humidity, Mean Humidity, Min Humidity, Max Sea Level PressureIn, Mean Sea Level PressureIn, Min Sea Level PressureIn, Max VisibilityMiles, Mean VisibilityMiles, Min VisibilityMiles, Max Wind SpeedMPH, Mean Wind SpeedMPH, Max Gust SpeedMPH,PrecipitationIn, CloudCover, Events, WindDirDegrees
2013-1-1,68,58,48,66,56,41,100,88,74,30.19,30.01,29.88,10,7,1,25,9,33,0.05,6,Rain,348
2013-1-2,48,45,42,41,38,37,86,80,71,30.30,30.25,30.19,9,7,5,21,14,26,0.11,7,Rain,355
2013-1-3,51,47,43,38,35,31,79,64,46,30.41,30.35,30.29,10,10,8,18,12,24,0.00,8,,10
2013-1-4,52,48,43,38,36,33,80,62,49,30.47,30.39,30.35,10,10,10,17,11,23,0.00,8,,16
2013-1-5,48,46,44,47,44,36,93,88,63,30.36,30.30,30.25,10,8,2,15,11,,0.05,8,Rain,3
2013-1-6,60,50,39,46,41,36,93,79,49,30.36,30.30,30.26,10,9,2,17,11,22,0.00,4,,357
2013-1-7,64,50,36,50,43,33,89,78,58,30.31,30.19,30.06,10,9,3,15,8,,0.00,2,,50
2013-1-8,71,63,55,67,60,50,94,90,80,30.04,29.93,29.86,10,6,2,17,11,79,0.64,7,Rain-Thunderstorm,88
2013-1-9,70,65,60,65,63,57,94,91,81,30.08,29.91,29.82,10,7,1,29,14,38,1.64,7,Rain-Thunderstorm,156
2013-1-10,66,60,54,58,51,46,93,76,48,30.13,30.05,30.01,10,10,9,10,6,,0.00,1,Rain,207
2013-1-11,73,62,50,70,62,46,100,88,68,30.06,29.92,29.86,10,6,0,15,8,16,0.00,6,Fog,131
2013-1-12,73,71,69,70,68,66,100,92,83,29.87,29.79,29.63,6,4,0,31,13,41,0.00,8,Fog-Rain,160
2013-1-13,70,57,44,68,46,37,93,78,59,30.10,29.95,29.77,10,9,2,28,14,39,0.13,8,Rain,354
2013-1-14,48,44,41,40,38,36,82,75,64,30.20,30.12,30.06,10,10,7,24,15,30,0.00,8,Rain,13
2013-1-15,46,42,39,43,39,34,93,85,76,30.17,30.09,30.05,10,8,3,23,13,29,0.01,8,Rain,356
2013-1-16,55,46,37,36,28,21,82,56,28,30.34,30.27,30.20,10,10,10,22,15,33,0.00,2,,327
2013-1-17,64,49,34,39,33,27,89,60,28,30.47,30.40,30.31,10,10,10,16,5,21,0.00,0,,336
2013-1-18,64,50,37,45,39,33,86,69,34,30.51,30.44,30.36,10,9,5,14,7,18,0.00,0,,80
2013-1-19,68,56,45,51,47,40,88,74,52,30.35,30.27,30.20,10,9,4,15,8,,0.00,0,,114
2013-1-20,70,58,46,54,49,44,94,80,44,30.27,30.20,30.13,10,7,0,12,5,,0.00,0,Fog,115
2013-1-21,71,60,48,58,50,46,94,83,51,30.25,30.18,30.13,10,6,0,8,5,,0.00,0,Fog,96
2013-1-22,72,59,46,56,49,44,100,83,40,30.32,30.24,30.20,10,4,0,14,5,16,0.00,0,Fog,74
2013-1-23,75,63,51,62,54,48,100,87,55,30.35,30.28,30.25,10,5,0,15,6,20,0.00,1,Fog,101
2013-1-24,73,66,59,64,61,57,100,88,68,30.30,30.23,30.17,10,6,0,17,6,22,0.00,1,Fog,187
2013-1-25,75,65,55,65,61,54,100,88,71,30.20,30.14,30.09,10,6,0,15,6,22,0.00,4,Fog,176
2013-1-26,75,68,62,65,62,61,94,82,60,30.18,30.13,30.09,10,9,6,16,7,,0.00,2,,146
2013-1-27,77,70,64,68,66,62,90,84,71,30.12,30.08,30.02,10,10,7,21,12,28,0.00,6,,144
2013-1-28,78,74,70,69,68,66,91,84,68,30.10,30.01,29.94,10,8,6,24,16,30,0.00,7,,148
2013-1-29,75,68,61,70,68,55,91,85,78,29.94,29.76,29.62,10,7,5,25,17,34,0.02,8,Rain,173
2013-1-30,66,56,45,53,29,16,72,37,16,30.27,30.04,29.79,10,10,10,31,13,38,0.00,2,,326
2013-1-31,64,52,39,45,36,30,74,52,29,30.34,30.28,30.22,10,10,10,14,6,,0.00,0,,159